Location: Unspecified
(0.0000°N, 0.0000°E)
Time: 02:22:22
(UTC+00:00)

Vanguard 1 Rocket - Pass Details

Date: 12 December 2017
Orbit: 656 x 4222 km, 34.3° (Epoch: 20 January)

Event Time Altitude Azimuth Distance (km) Brightness Sun altitude
Rises 19:05:20 0° 317° (NW) 5,528 11.7 -16.4°
Reaches altitude 10° 19:11:28 10° 340° (NNW) 5,257 11.2 -17.8°
Maximum altitude 19:19:51 15° 11° (N) 5,664 11.1 -19.7°
Enters shadow 19:26:50 13° 32° (NNE) 6,424 11.2 -21.3°
